EW9592 Weather Reports


Display with metric or nautical units.
time (UTC)temp
F
wind
direction
speed
MPH
gust
MPH
rain 1hr
in
rain 24hr
in
rain mn
in
humidity
%
barometer
mb
20260901003051 79 186 0.0 0.0 0.00 0.00 0.00 88 1017.1
20260901001550 80 186 0.0 0.0 0.00 0.00 0.00 88 1017.0
20260901000049 81 186 0.0 0.0 0.00 0.00 0.00 87 1017.0
20260831234553 81 186 0.0 0.0 0.00 0.00 0.00 86 1017.1
20260831233054 82 186 0.0 0.0 0.00 0.00 0.00 85 1017.1
20260831231550 83 186 0.0 0.0 0.00 0.00 0.00 84 1017.1
20260831230047 83 186 0.0 0.0 0.00 0.00 0.00 84 1017.0
20260831224546 84 186 0.0 0.0 0.00 0.00 0.00 84 1017.1
20260831223053 84 186 0.0 0.0 0.00 0.00 0.00 83 1017.2
20260831221544 85 186 0.0 0.0 0.00 0.00 0.00 84 1017.4
20260831220046 85 276 0.0 2.0 0.00 0.00 0.00 84 1017.5
20260831214556 84 135 0.0 0.0 0.00 0.00 0.00 84 1017.7
20260831213040 84 135 0.0 0.0 0.00 0.00 0.00 81 1017.7
20260831211543 85 135 0.0 0.0 0.00 0.00 0.00 82 1017.8
20260831210040 86 136 0.0 0.0 0.00 0.00 0.00 79 1017.8
20260831204538 87 136 0.0 0.0 0.00 0.00 0.00 75 1018.0
20260831203037 88 136 0.0 0.0 0.00 0.00 0.00 73 1018.1
20260831201537 89 135 0.0 1.0 0.00 0.00 0.00 69 1018.2
20260831200036 90 128 0.0 3.0 0.00 0.00 0.00 62 1018.4
20260831194536 91 30 0.0 2.0 0.00 0.00 0.00 61 1018.5
20260831193101 91 102 0.0 2.0 0.00 0.00 0.00 64 1018.7
20260831191530 90 211 0.0 2.0 0.00 0.00 0.00 66 1018.8
20260831190030 90 134 0.0 2.0 0.00 0.00 0.00 66 1018.9
20260831184525 89 105 0.0 3.0 0.00 0.00 0.00 67 1019.0
20260831183024 89 257 0.0 3.0 0.00 0.00 0.00 69 1019.3
20260831181541 88 51 0.0 2.0 0.00 0.00 0.00 69 1019.4
20260831180032 88 8 0.0 1.0 0.00 0.00 0.00 69 1019.5
20260831174522 89 82 0.0 2.0 0.00 0.00 0.00 69 1019.5
20260831173021 89 346 0.0 2.0 0.00 0.00 0.00 68 1019.7
20260831171521 89 40 1.0 3.0 0.00 0.00 0.00 66 1019.8
20260831170018 88 121 0.0 3.0 0.00 0.00 0.00 71 1019.9
20260831164520 89 40 0.0 3.0 0.00 0.00 0.00 67 1020.0
20260831163016 89 269 0.0 2.0 0.00 0.00 0.00 69 1020.2
20260831161517 88 46 0.0 3.0 0.00 0.00 0.00 69 1020.1
20260831160014 87 177 0.0 1.0 0.00 0.00 0.00 73 1020.1
20260831154506 86 41 0.0 2.0 0.00 0.00 0.00 73 1020.1
20260831153100 85 121 0.0 3.0 0.00 0.00 0.00 77 1020.1
20260831151557 83 23 0.0 2.0 0.00 0.00 0.00 79 1020.2
20260831144556 80 122 0.0 2.0 0.00 0.00 0.00 88 1020.4
20260831143046 78 101 0.0 1.0 0.00 0.00 0.00 89 1020.3
20260831141540 77 83 0.0 1.0 0.00 0.00 0.00 91 1020.1
20260831140037 75 139 0.0 0.0 0.00 0.00 0.00 91 1020.1
20260831134534 74 143 0.0 1.0 0.00 0.00 0.00 92 1020.1
20260831133028 73 146 0.0 0.0 0.00 0.00 0.00 92 1020.1
20260831131544 72 146 0.0 2.0 0.00 0.00 0.00 92 1020.0
20260831130038 70 149 0.0 0.0 0.00 0.00 0.00 92 1020.0
20260831124526 70 148 0.0 0.0 0.00 0.00 0.00 92 1019.9
20260831123025 69 148 0.0 0.0 0.00 0.00 0.00 92 1019.8
20260831121527 69 149 0.0 0.0 0.00 0.00 0.00 92 1019.7
20260831120019 69 149 0.0 0.0 0.00 0.00 0.00 92 1019.5
20260831114518 69 149 0.0 0.0 0.00 0.00 0.00 92 1019.4
20260831113017 69 149 0.0 0.0 0.00 0.00 0.00 92 1019.3
20260831111515 69 148 0.0 0.0 0.00 0.00 0.00 92 1019.1
20260831110014 69 148 0.0 0.0 0.00 0.00 0.00 92 1019.0
20260831104523 69 149 0.0 0.0 0.00 0.00 0.00 92 1018.8
20260831103016 69 149 0.0 0.0 0.00 0.00 0.00 92 1018.7
20260831101510 69 149 0.0 0.0 0.00 0.00 0.00 92 1018.6
20260831100015 69 149 0.0 0.0 0.00 0.00 0.00 92 1018.4
20260831094525 69 149 0.0 0.0 0.00 0.00 0.00 92 1018.2
20260831093026 69 149 0.0 0.0 0.00 0.00 0.00 92 1018.2
20260831091507 69 150 0.0 0.0 0.00 0.00 0.00 92 1018.1
20260831090007 69 149 0.0 0.0 0.00 0.00 0.00 92 1018.0
20260831084512 69 149 0.0 0.0 0.00 0.00 0.00 92 1017.8
20260831083005 69 148 0.0 0.0 0.00 0.00 0.00 92 1017.9
20260831081508 69 148 0.0 0.0 0.00 0.00 0.00 92 1018.0
20260831080003 69 148 0.0 0.0 0.00 0.00 0.00 92 1017.7
20260831074503 69 148 0.0 0.0 0.00 0.00 0.00 92 1017.9
20260831073100 70 148 0.0 0.0 0.00 0.00 0.00 92 1017.9
20260831071558 70 148 0.0 0.0 0.00 0.00 0.00 92 1018.0
20260831070057 70 148 0.0 0.0 0.00 0.00 0.00 92 1018.1
20260831064555 70 149 0.0 0.0 0.00 0.00 0.00 91 1018.3
20260831063108 70 149 0.0 0.0 0.00 0.00 0.00 91 1018.4
20260831061554 70 149 0.0 0.0 0.00 0.00 0.00 91 1018.4
20260831060052 71 150 0.0 0.0 0.00 0.00 0.00 91 1018.4
20260831054551 71 149 0.0 0.0 0.00 0.00 0.00 91 1018.4
20260831053124 71 149 0.0 0.0 0.00 0.00 0.00 91 1018.3
20260831051548 71 149 0.0 0.0 0.00 0.00 0.00 91 1018.3
20260831050047 71 148 0.0 0.0 0.00 0.00 0.00 91 1018.4
20260831044636 71 149 0.0 0.0 0.00 0.00 0.00 91 1018.4
20260831043044 72 149 0.0 0.0 0.00 0.00 0.00 91 1018.5
20260831041549 72 150 0.0 0.0 0.00 0.00 0.00 91 1018.4
20260831040041 72 149 0.0 0.0 0.00 0.00 0.00 91 1018.3
20260831034540 72 149 0.0 0.0 0.00 0.00 0.00 91 1018.3
20260831033053 73 149 0.0 0.0 0.00 0.00 0.00 91 1018.3
20260831031542 73 149 0.0 0.0 0.00 0.00 0.00 91 1018.4
20260831030039 73 149 0.0 0.0 0.00 0.00 0.00 91 1018.5
20260831024538 73 149 0.0 0.0 0.00 0.00 0.00 91 1018.5
20260831023036 74 150 0.0 0.0 0.00 0.00 0.00 91 1018.4
20260831021536 74 148 0.0 0.0 0.00 0.00 0.00 91 1018.4
20260831020036 74 150 0.0 0.0 0.00 0.00 0.00 91 1018.2
20260831014535 74 149 0.0 0.0 0.00 0.00 0.00 91 1018.3
20260831013036 75 149 0.0 0.0 0.00 0.00 0.00 90 1018.1
20260831011533 75 149 0.0 0.0 0.00 0.00 0.00 90 1017.8
20260831010053 76 149 0.0 0.0 0.00 0.00 0.00 90 1017.7
20260831004532 76 149 0.0 0.0 0.00 0.00 0.00 90 1017.5